Wind_Speed
7 6 1 3 3 4 4 7 5 10 2 3 5 7 8 2 2 3 12 8 12 11 15 19 22 22 22 25 26 21 21 21 22 25 28 30 31 31 31 30 31 31 29 27 26 26 26 29 33
9 6 3 2 3 1 5 5 9 9 7 7 7 6 4 1 2 6 9 14 14 12 16 18 21 23 22 23 26 26 21 21 22 25 27 29 31 32 33 31 30 29 27 27 28 27 28 32 35
9 5 4 4 4 6 6 5 8 6 7 6 4 3 7 9 1 14 7 17 17 16 19 19 22 24 24 24 25 26 26 23 24 26 29 30 32 31 31 31 30 31 31 27 28 30 32 34 34
6 4 4 2 9 11 8 3 6 7 7 2 7 6 4 4 14 12 18 16 16 15 19 19 21 24 26 24 25 26 28 28 29 29 30 30 31 31 32 32 31 28 30 29 28 31 38 35 33
3 3 2 4 10 13 8 7 7 7 7 6 5 6 7 3 18 22 17 15 14 14 12 19 19 23 25 26 27 28 29 30 32 33 33 33 33 34 33 32 28 26 28 28 30 34 37 38 35
2 3 1 6 9 14 8 10 10 18 9 5 5 6 3 18 24 21 18 13 12 11 10 18 21 20 20 24 28 33 33 32 32 34 36 38 37 36 33 30 28 28 29 29 32 34 34 35 29
6 4 6 5 6 10 12 10 16 11 8 8 9 5 2 6 19 20 16 13 12 10 8 12 19 19 19 22 26 27 32 30 23 17 23 31 37 37 33 32 32 28 27 33 35 33 32 27 20
4 4 3 5 7 12 6 7 10 4 4 4 6 6 5 6 22 17 14 12 12 12 10 12 13 15 17 17 23 24 20 20 26 14 15 21 25 34 33 33 33 29 28 36 35 32 29 23 26
3 1 5 6 7 14 12 10 13 5 7 3 3 8 8 28 23 18 14 12 13 14 12 12 14 15 16 15 15 18 22 28 27 23 19 16 18 27 30 31 31 31 31 35 33 31 27 22 31
5 7 9 8 9 13 13 6 13 9 3 2 4 6 25 28 24 13 12 14 17 16 12 9 11 15 17 18 20 21 24 28 31 29 30 20 18 25 32 31 31 30 35 33 33 30 26 28 34
6 13 9 8 15 8 14 17 9 10 5 7 9 12 15 13 13 13 15 22 19 17 12 9 11 14 19 22 23 23 25 25 28 30 40 33 33 30 34 33 31 31 33 31 30 29 27 33 25
7 11 10 14 16 12 16 17 10 7 9 6 15 19 13 11 10 9 14 17 19 18 13 12 11 15 21 23 24 24 24 26 30 34 35 31 33 38 36 32 32 32 34 34 33 31 29 26 21
12 15 15 15 17 18 17 19 19 14 11 7 11 14 15 13 11 13 21 22 22 20 17 14 13 18 20 24 26 26 27 28 25 29 33 30 42 37 35 32 34 35 35 35 34 31 30 26 22
7 12 17 16 20 11 10 16 6 12 8 9 16 15 14 13 11 12 20 22 24 21 18 16 17 19 21 23 25 25 23 23 23 27 35 39 44 43 39 37 36 37 35 34 33 32 30 24 16
4 9 13 15 8 9 7 16 10 15 9 10 13 13 13 14 16 18 28 28 30 24 18 15 19 20 22 21 21 24 24 21 22 31 39 41 41 43 40 38 37 34 36 36 32 31 29 21 15
4 3 6 7 6 10 8 17 19 11 9 12 11 10 13 15 19 20 29 31 29 25 21 18 19 22 23 22 23 25 26 29 29 36 43 38 38 41 40 37 38 37 36 34 32 33 29 20 15
3 5 6 8 8 7 6 13 10 10 8 12 8 11 12 11 8 19 28 34 33 27 25 22 22 23 25 22 24 25 24 35 35 36 35 35 38 40 39 39 39 38 37 37 33 31 28 23 19
5 4 5 9 1 7 12 17 16 18 10 14 10 13 15 15 18 19 27 32 32 30 27 25 23 26 25 25 26 25 26 32 35 37 36 38 36 37 38 38 39 40 40 40 35 31 28 27 24
7 9 9 13 8 9 15 18 10 15 9 10 9 11 16 18 11 18 25 31 32 32 30 28 27 26 27 27 25 22 25 29 33 36 33 41 35 37 37 37 39 39 39 40 36 29 33 31 27
9 9 14 16 10 6 16 10 14 14 12 14 13 9 15 10 10 13 21 26 29 31 32 29 28 27 28 27 24 18 22 26 30 37 33 37 40 37 36 35 39 39 40 38 36 33 29 27 32
8 10 12 14 15 13 11 9 15 11 6 6 9 9 13 19 18 15 16 25 27 28 33 33 31 29 28 27 23 17 20 17 23 28 32 36 36 37 34 33 38 39 38 36 35 37 31 23 33
9 12 16 19 11 5 3 6 19 12 9 5 7 9 11 17 20 18 17 20 26 27 33 33 30 29 26 25 23 24 20 15 18 25 31 35 36 28 30 32 36 31 36 34 39 36 34 29 27
12 7 5 5 5 3 6 6 13 6 8 11 8 10 14 21 22 20 20 26 27 30 31 34 31 29 27 28 27 24 18 19 20 23 28 31 35 27 32 32 38 26 32 33 34 24 30 31 33
10 7 5 5 4 4 9 6 8 5 11 5 7 5 13 18 21 20 18 22 24 27 29 33 33 31 30 29 30 28 24 19 22 22 25 32 32 30 30 31 34 33 26 26 30 34 30 30 32
8 2 1 3 3 5 5 7 13 13 11 11 11 14 14 20 19 17 17 16 23 27 27 29 32 29 33 30 30 27 28 28 27 28 26 31 30 29 34 36 35 37 29 27 30 34 34 33 36
11 6 4 5 1 2 12 6 5 10 13 11 12 9 12 18 19 19 19 17 24 28 28 28 29 28 32 32 31 30 31 32 29 31 29 30 31 33 40 37 37 39 38 38 38 33 33 35 36
5 6 3 3 2 1 4 5 7 11 12 8 9 5 14 16 18 19 17 16 23 28 32 32 31 29 32 31 31 33 31 30 30 33 31 32 32 29 33 39 40 40 37 36 37 36 34 35 39
7 4 3 3 3 4 4 2 2 16 13 10 8 7 4 12 16 15 15 15 23 27 27 28 32 31 32 32 30 30 33 32 32 33 34 33 36 34 30 35 39 40 38 36 34 34 36 37 40
4 4 3 1 2 1 1 2 12 13 15 15 17 17 15 12 8 6 5 5 6 13 22 26 27 26 28 32 30 30 30 29 30 32 37 38 37 38 34 36 39 40 42 43 41 38 36 39 40
8 8 7 2 5 4 2 3 9 9 13 13 15 14 16 19 18 16 12 13 14 12 10 8 10 18 27 30 30 31 31 32 30 31 31 36 36 39 42 39 39 40 42 42 43 41 38 37 37
Wind_Direction
230 247 233 48 42 68 255 256 261 295 218 223 143 113 123 82 136 214 149 178 165 165 176 178 183 182 178 170 167 168 163 156 151 149 149 148 148 147 145 144 141 136 134 134 132 137 138 128 132
195 159 88 86 95 314 266 240 231 222 212 172 113 119 112 89 133 138 142 171 172 169 172 181 185 183 181 179 174 169 167 163 160 157 153 152 150 148 146 143 142 140 136 138 141 143 138 133 134
165 127 99 149 165 204 233 237 79 325 248 167 112 71 128 154 163 150 185 164 174 178 177 182 188 189 187 184 180 174 172 171 165 161 159 156 153 150 147 144 143 138 138 139 141 142 138 136 134
152 34 12 160 231 242 225 271 290 262 276 188 139 116 66 146 155 172 154 159 155 179 183 185 189 192 193 188 186 183 179 174 169 165 163 158 155 151 149 146 145 145 140 141 142 141 137 135 132
113 72 216 219 247 258 260 261 269 274 255 175 131 170 128 40 141 146 155 155 154 162 185 190 190 196 196 194 192 189 184 178 172 170 168 165 158 154 153 149 149 147 144 147 148 144 139 138 131
63 110 110 237 261 275 272 265 254 263 211 183 132 96 160 150 139 150 151 149 157 165 164 194 192 196 197 207 203 195 190 181 178 175 174 169 163 161 159 153 150 152 150 154 152 147 144 143 140
153 125 214 220 267 294 277 314 284 230 174 190 162 104 148 195 159 156 150 153 159 164 165 177 196 196 207 207 215 215 208 175 178 173 185 170 168 160 161 157 154 158 157 160 151 151 146 139 141
152 118 218 210 246 275 269 320 315 193 223 127 129 150 189 203 165 158 150 151 163 170 179 182 194 200 208 209 213 218 187 195 180 165 111 163 173 162 160 161 158 162 164 159 155 154 145 134 139
140 167 218 221 229 245 310 337 316 283 141 220 177 157 175 153 157 160 159 152 171 169 175 183 196 202 205 205 198 181 170 176 156 167 133 190 206 167 161 166 164 162 164 164 162 157 142 131 147
171 217 216 205 235 268 292 288 291 316 193 227 55 61 132 148 168 169 164 164 159 170 177 185 185 195 198 196 190 181 178 179 181 194 187 229 190 181 170 170 166 163 162 167 165 160 143 140 142
221 237 232 254 252 262 271 284 289 271 244 225 180 154 149 155 171 179 180 177 173 176 170 172 176 189 191 191 186 185 191 194 188 183 185 195 185 186 169 167 166 161 161 168 169 166 152 141 144
254 255 234 257 263 267 263 274 279 264 253 275 170 161 154 167 180 179 159 168 162 166 166 162 175 186 185 187 190 189 185 184 191 192 188 168 168 171 167 167 168 161 168 170 168 170 160 149 140
243 249 259 257 257 256 265 264 257 265 251 159 142 157 166 176 182 178 165 158 158 163 165 165 183 187 188 189 189 191 182 186 189 196 193 182 171 168 169 168 169 169 170 170 171 169 169 159 142
251 236 246 253 255 253 255 270 172 251 227 155 159 179 176 176 170 146 149 151 160 163 166 167 178 186 188 192 195 191 188 200 200 190 180 169 169 172 174 172 172 171 169 170 174 174 171 164 148
245 260 273 258 259 251 253 277 257 252 228 197 185 178 174 179 168 175 168 158 162 168 168 177 179 184 189 194 196 186 187 180 178 170 162 174 171 174 174 172 172 171 171 171 172 172 168 172 152
264 212 246 262 240 264 177 263 271 245 215 238 195 184 169 180 188 181 172 164 167 165 172 181 190 185 190 189 187 179 182 178 169 175 173 179 183 182 180 174 174 173 170 165 170 173 171 173 162
247 249 265 287 244 256 199 273 276 256 225 234 215 188 185 177 184 182 172 168 169 167 165 172 188 184 185 186 183 183 185 182 180 177 178 187 188 185 179 177 176 172 168 169 172 176 179 179 175
222 258 253 250 294 338 310 293 272 262 228 232 216 194 187 185 191 179 165 165 168 165 165 167 180 192 188 187 185 191 194 192 189 188 185 188 183 186 185 182 178 173 175 174 179 182 187 183 181
262 267 278 286 291 322 285 281 268 278 231 238 214 185 188 192 174 159 156 161 164 165 165 168 177 190 189 187 176 177 183 198 196 192 189 187 183 187 185 185 180 180 179 182 184 191 190 187 185
244 261 273 286 292 262 288 280 287 283 254 214 198 191 190 159 157 153 157 160 165 165 167 170 176 187 192 190 190 191 191 197 202 200 191 188 194 194 195 191 188 188 188 190 189 192 179 182 183
255 254 262 266 295 288 295 297 293 281 250 203 214 205 187 172 170 165 168 170 165 168 169 170 176 184 194 198 197 201 203 208 197 200 192 188 194 200 198 203 197 197 197 194 194 192 183 180 180
264 251 260 262 263 271 35 290 285 279 287 298 229 213 176 182 181 170 168 173 175 173 172 172 173 183 192 200 202 201 200 189 200 193 193 194 198 200 202 203 189 197 202 202 199 194 189 181 182
255 319 313 340 320 291 276 259 273 249 284 274 266 224 196 182 178 177 178 177 174 172 172 174 173 179 186 187 192 198 193 192 187 185 185 184 191 193 199 198 190 172 190 196 184 186 189 187 186
301 324 264 218 178 242 244 223 273 237 242 267 260 234 196 183 181 179 166 162 165 172 172 175 172 175 182 186 184 186 187 187 170 172 171 184 194 195 188 183 194 181 175 185 190 200 201 194 197
241 312 252 255 209 227 227 225 239 266 256 245 265 279 202 181 167 162 158 162 167 173 173 175 174 172 181 183 189 184 182 186 185 181 177 182 193 197 197 190 190 192 203 199 209 201 203 207 208
217 193 164 200 267 302 209 236 248 239 254 246 252 273 176 168 165 168 172 167 170 173 176 177 177 174 180 182 190 193 195 188 187 189 187 187 194 199 206 201 198 203 202 204 209 213 217 216 219
200 199 268 6 225 260 268 299 312 337 268 262 266 118 161 164 167 168 173 169 166 175 182 182 180 179 181 185 186 198 201 197 196 197 199 198 202 205 209 209 208 209 212 215 218 219 220 224 227
186 122 145 178 210 205 248 284 325 350 356 42 34 71 89 165 167 168 168 174 178 181 182 184 185 184 183 186 189 193 200 208 209 207 210 210 212 212 212 216 215 215 217 219 221 224 229 235 237
235 159 160 235 219 243 288 134 1 9 17 57 68 67 64 71 79 113 108 125 163 169 178 183 186 184 186 190 190 193 198 203 210 215 219 219 218 218 218 220 220 222 226 228 228 229 231 234 237
161 185 174 182 179 207 274 272 321 339 27 35 56 59 61 67 66 63 71 72 102 127 152 192 209 199 193 194 194 197 199 203 205 210 216 222 219 222 222 222 225 226 229 232 232 231 232 235 234
Height
773 774 776 779 804 810 810 787 760 755 751 735 731 738 748 746 750 773 747 750 752 754 756 758 761 764 766 766 768 774 775 776 777 779 782 785 789 792 795 798 801 802 804 806 809 813 817 818 820
770 773 776 787 812 819 805 768 762 748 738 731 729 735 741 754 742 746 747 748 750 751 754 758 761 763 766 768 768 769 775 777 779 781 783 785 789 791 794 798 801 803 807 808 811 814 819 820 822
771 772 782 795 812 812 796 757 745 740 733 728 732 729 737 745 739 740 743 746 748 750 752 755 759 762 765 767 769 769 771 776 779 782 783 786 789 792 795 798 802 804 806 812 813 815 818 822 824
769 775 784 797 799 776 766 752 747 743 738 724 727 740 734 733 735 738 742 746 748 750 751 753 756 760 763 766 768 768 769 771 776 780 784 788 790 792 796 799 803 807 809 812 816 818 818 824 828
769 780 796 797 787 762 754 749 746 744 741 728 724 740 740 735 733 738 742 744 748 750 751 752 754 757 760 763 765 767 768 769 772 777 782 785 789 792 796 798 804 807 811 815 818 821 820 825 829
777 781 801 801 783 755 750 742 742 736 730 726 729 739 742 737 734 738 741 743 747 748 750 751 754 756 759 760 762 761 765 769 773 775 780 782 784 790 796 799 804 809 812 817 820 822 824 828 829
776 788 791 785 778 761 741 733 731 727 726 727 719 741 741 737 735 738 740 742 745 747 749 751 753 756 757 758 760 764 756 765 777 781 782 786 785 788 796 798 801 809 814 818 820 824 826 829 830
768 778 779 776 774 766 739 733 726 719 723 711 713 740 744 731 734 737 741 742 745 746 748 749 752 754 754 755 757 762 765 763 774 781 779 789 792 794 795 799 799 808 814 818 821 825 829 828 831
760 780 787 775 769 750 734 739 722 711 715 713 712 719 715 724 733 737 740 741 744 745 747 748 750 752 753 754 756 761 765 770 772 776 782 790 796 798 798 802 803 806 813 818 823 826 830 830 833
766 774 764 750 746 745 741 743 733 727 719 718 721 718 717 722 729 732 736 739 742 743 745 747 748 750 753 754 755 759 762 765 765 773 778 788 794 798 799 805 806 809 813 819 824 827 830 831 834
757 753 747 744 738 740 740 735 729 729 725 715 721 720 719 723 728 731 734 734 738 741 743 745 747 750 751 752 754 757 759 762 766 769 773 785 792 799 801 805 808 809 813 819 823 826 831 833 838
757 742 742 737 734 738 736 726 729 724 716 704 707 710 716 722 726 727 730 733 736 739 741 744 747 749 750 752 754 757 758 761 765 768 773 777 778 792 798 803 805 805 812 818 821 826 830 835 838
749 739 735 731 730 729 726 728 725 720 708 702 707 711 714 718 720 723 727 731 735 737 739 741 746 749 750 751 754 756 758 760 763 766 770 774 780 788 796 802 803 807 812 817 821 825 828 834 836
733 733 730 727 724 725 728 721 723 711 704 704 707 711 712 715 717 723 725 728 733 736 737 739 743 748 749 750 753 756 760 760 761 765 766 771 776 785 793 797 802 807 810 816 821 823 828 832 836
728 737 729 724 722 724 718 723 718 701 700 703 704 706 709 711 714 714 717 722 727 733 735 738 741 746 748 750 753 757 759 761 761 762 766 772 777 783 791 796 800 805 811 815 820 823 828 832 836
733 733 742 720 717 711 720 727 702 694 698 701 703 701 706 708 707 710 712 718 725 729 733 737 740 744 747 749 753 755 759 762 763 766 769 774 779 784 789 794 799 806 810 812 818 824 827 830 834
738 750 739 727 711 713 716 717 698 691 694 696 697 699 701 705 707 707 708 713 720 725 731 734 738 742 746 750 753 755 759 763 766 768 772 776 780 784 787 793 797 802 807 812 818 823 826 829 833
748 743 736 731 715 715 716 708 696 688 692 690 691 694 696 700 698 701 705 713 719 724 729 731 736 741 745 749 752 756 760 763 766 769 772 776 779 784 788 793 796 799 806 810 816 820 826 829 833
732 734 739 725 718 723 717 709 695 684 687 689 687 690 690 692 693 700 705 710 719 723 727 729 734 739 743 747 750 755 757 762 765 767 772 774 778 783 788 791 794 798 803 807 813 818 821 827 831
732 732 735 723 713 718 712 706 691 683 677 675 678 686 685 691 695 700 705 710 716 719 724 727 731 737 741 745 749 752 755 758 761 764 768 773 777 782 786 788 792 796 801 805 810 815 820 825 828
731 733 733 731 716 708 713 706 693 679 671 669 670 670 677 681 689 696 702 705 711 716 719 723 728 735 740 744 747 751 754 756 758 761 764 770 775 781 783 786 790 795 799 802 808 813 816 821 825
737 722 722 718 721 737 709 729 698 685 677 667 667 671 673 677 677 686 696 702 706 712 716 721 725 732 738 741 745 748 749 751 755 758 762 766 775 779 781 784 789 793 796 800 806 810 813 816 823
726 718 723 722 727 729 714 728 694 685 681 671 665 664 663 663 669 679 686 692 700 708 713 718 722 728 735 739 742 745 747 750 751 756 760 764 771 776 780 782 787 790 795 800 802 806 810 813 819
724 722 719 717 724 740 714 719 704 692 672 662 654 654 657 659 663 670 683 692 699 706 711 715 719 724 730 737 740 743 746 747 750 754 758 762 770 774 779 780 785 790 794 799 802 807 809 811 815
726 732 732 730 733 731 702 711 693 671 664 658 653 646 649 649 660 671 680 689 695 701 707 712 716 720 725 732 738 741 743 745 747 751 755 761 766 772 775 779 784 788 792 796 800 803 805 807 810
723 730 734 733 735 722 693 702 683 657 646 646 643 641 641 647 654 664 671 680 688 696 703 708 712 716 721 726 732 738 741 743 746 750 753 756 761 765 770 775 779 783 786 791 797 799 801 803 806
730 730 724 736 725 737 705 684 663 660 650 643 642 645 644 647 653 660 670 676 685 692 695 700 706 711 716 721 727 733 739 742 744 747 752 755 760 764 767 770 774 778 781 785 788 791 794 797 800
708 719 734 736 733 733 701 697 694 678 665 651 653 653 648 645 652 660 667 673 679 685 692 699 703 707 711 718 723 727 733 740 744 746 749 752 756 760 764 767 770 773 776 779 783 785 788 791 793
714 728 732 727 725 728 716 706 697 688 676 667 666 660 658 657 662 665 671 678 685 691 693 696 702 706 710 714 718 723 728 733 738 742 744 748 752 755 759 762 765 767 770 773 776 778 781 782 785
704 715 719 726 721 722 722 721 699 690 682 677 676 674 670 666 670 671 676 681 688 695 702 708 712 710 708 711 716 719 722 727 731 734 739 743 746 749 753 757 759 760 762 766 768 771 774 776 777